Regional Weather Roundup
Issued by NWS

Home | Current Version | Previous Version | Graphics & Text | Print | Product List | Glossary On
Versions: 1 2 3 4 5 6 7 8 9 10 11 12 13 14 15 16 17 18 19 20 21 22 23 24 25 26 27 28 29 30 31 32 33 34 35 36 37 38 39 40 41 42 43 44 45 46 47 48 49 50
000
ASUS43 KLMK 161510
RWRKY
KENTUCKY REGIONAL WEATHER ROUNDUP
NATIONAL WEATHER SERVICE LOUISVILLE KY
1100 AM EDT TUE SEP 16 2014

NOTE "FAIR" INDICATES FEW OR NO CLOUDS BELOW 12,000 FEET
WITH NO SIGNIFICANT WEATHER AND/OR OBSTRUCTIONS TO VISIBILITY.

KYZ001>023-026-027-061>063-070>075-161600-
WESTERN AND SOUTH CENTRAL KENTUCKY

CITY           SKY/WX    TMP DP  RH WIND       PRES   REMARKS
PADUCAH        CLOUDY    65  55  70 N12       30.18S
HENDERSON      CLOUDY    61  54  77 N7        30.19S
OWENSBORO      CLOUDY    61  58  90 N8        30.18R
HOPKINSVILLE   CLOUDY    62  62  99 N8        30.17R
BOWLING GREEN  CLOUDY    63  60  90 VRB6      30.16R FOG
GLASGOW        CLOUDY    65  61  86 NW6       30.14S
$$

KYZ024-025-028>034-038-045-046-053-161600-
NORTH CENTRAL KENTUCKY

CITY           SKY/WX    TMP DP  RH WIND       PRES   REMARKS
LOUISVILLE/SDF CLOUDY    63  57  81 N8        30.16S
LOUISVILLE/LOU CLOUDY    63  57  81 NE6       30.16S
FORT KNOX      CLOUDY    60  57  89 N8        30.15S
$$

KYZ035>037-039>044-047>052-055>060-089>105-161600-
NORTHEAST KENTUCKY

CITY           SKY/WX    TMP DP  RH WIND       PRES   REMARKS
LEXINGTON      CLOUDY    63  58  83 N8        30.14S
COVINGTON      CLOUDY    58  52  80 N10       30.17S
FRANKFORT      CLOUDY    61  57  87 NE8       30.15R
$$

KYZ054-064>069-076>088-106>120-161600-
SOUTHEAST KENTUCKY

CITY           SKY/WX    TMP DP  RH WIND       PRES   REMARKS
JACKSON        CLOUDY    63  61  93 W3        30.12S FOG
LONDON         CLOUDY    66  62  87 NW5       30.13R
SOMERSET       NOT AVBL
MIDDLESBORO    CLOUDY    68  63  83 NW3       30.12S
MONTICELLO     CLOUDY    67  65  93 CALM      30.14S FOG
$$




USA.gov is the U.S. government's official web portal to all federal, state and local government web resources and services.